TimeCST,TemperatureF,Dew PointF,Humidity,Sea Level PressureIn,VisibilityMPH,Wind Direction,Wind SpeedMPH,Gust SpeedMPH,PrecipitationIn,Events,Conditions,WindDirDegrees,DateUTC
12:15 AM,46.4,44.6,93,30.22,1.2,Calm,Calm,-,N/A,,Mist,0,2012-11-23 06:15:00
12:35 AM,44.6,44.6,100,30.21,0.5,Calm,Calm,-,N/A,Fog,Fog,0,2012-11-23 06:35:00
12:55 AM,44.6,44.6,100,30.21,0.5,Calm,Calm,-,N/A,Fog,Fog,0,2012-11-23 06:55:00
1:15 AM,44.6,44.6,100,30.21,0.5,Calm,Calm,-,N/A,Fog,Fog,0,2012-11-23 07:15:00
1:35 AM,42.8,42.8,100,30.21,1.0,Calm,Calm,-,N/A,,Mist,0,2012-11-23 07:35:00
1:55 AM,44.6,42.8,93,30.21,0.5,Calm,Calm,-,N/A,Fog,Fog,0,2012-11-23 07:55:00
2:15 AM,42.8,42.8,100,30.21,0.8,Calm,Calm,-,N/A,,Mist,0,2012-11-23 08:15:00
2:35 AM,42.8,42.8,100,30.21,0.2,Calm,Calm,-,N/A,Fog,Fog,0,2012-11-23 08:35:00
2:55 AM,42.8,42.8,100,30.22,0.2,Calm,Calm,-,N/A,Fog,Fog,0,2012-11-23 08:55:00
3:15 AM,42.8,42.8,100,30.21,0.5,Calm,Calm,-,N/A,Fog,Fog,0,2012-11-23 09:15:00
3:35 AM,42.8,42.8,100,30.21,0.2,Calm,Calm,-,N/A,Fog,Fog,0,2012-11-23 09:35:00
3:55 AM,42.8,42.8,100,30.22,0.5,Calm,Calm,-,N/A,Fog,Fog,0,2012-11-23 09:55:00
4:15 AM,41.0,41.0,100,30.22,0.8,Calm,Calm,-,N/A,,Overcast,0,2012-11-23 10:15:00
4:35 AM,42.8,42.8,100,30.22,0.5,Calm,Calm,-,N/A,Fog,Fog,0,2012-11-23 10:35:00
4:55 AM,42.8,42.8,100,30.23,0.8,Calm,Calm,-,N/A,,Mostly Cloudy,0,2012-11-23 10:55:00
5:15 AM,42.8,41.0,93,30.23,0.2,Calm,Calm,-,N/A,Fog,Fog,0,2012-11-23 11:15:00
5:35 AM,41.0,41.0,100,30.23,0.5,Calm,Calm,-,N/A,Fog,Fog,0,2012-11-23 11:35:00
5:55 AM,41.0,41.0,100,30.24,1.2,Calm,Calm,-,N/A,,Mist,0,2012-11-23 11:55:00
6:15 AM,41.0,41.0,100,30.24,2.0,Calm,Calm,-,N/A,,Clear,0,2012-11-23 12:15:00
6:35 AM,41.0,41.0,100,30.25,0.5,Calm,Calm,-,N/A,Fog,Fog,0,2012-11-23 12:35:00
7:15 AM,44.6,44.6,100,30.25,4.0,Calm,Calm,-,N/A,,Mostly Cloudy,0,2012-11-23 13:15:00
7:35 AM,50.0,48.2,94,30.26,7.0,Calm,Calm,-,N/A,,Scattered Clouds,0,2012-11-23 13:35:00
7:55 AM,53.6,53.6,100,30.26,5.0,Calm,Calm,-,N/A,,Clear,0,2012-11-23 13:55:00
8:15 AM,60.8,59.0,94,30.27,10.0,WNW,3.5,-,N/A,,Clear,300,2012-11-23 14:15:00
8:35 AM,62.6,55.4,77,30.28,10.0,NW,4.6,-,N/A,,Clear,310,2012-11-23 14:35:00
8:55 AM,64.4,53.6,68,30.28,10.0,WNW,6.9,-,N/A,,Clear,290,2012-11-23 14:55:00
9:15 AM,66.2,51.8,60,30.28,10.0,WNW,4.6,-,N/A,,Clear,300,2012-11-23 15:15:00
9:35 AM,68.0,51.8,56,30.28,10.0,WNW,5.8,-,N/A,,Clear,300,2012-11-23 15:35:00
9:55 AM,69.8,51.8,53,30.27,10.0,WNW,8.1,-,N/A,,Clear,300,2012-11-23 15:55:00
10:15 AM,69.8,51.8,53,30.27,10.0,WNW,6.9,-,N/A,,Clear,300,2012-11-23 16:15:00
10:35 AM,69.8,51.8,53,30.26,10.0,WNW,4.6,-,N/A,,Clear,300,2012-11-23 16:35:00
10:55 AM,71.6,51.8,50,30.25,10.0,West,3.5,-,N/A,,Clear,280,2012-11-23 16:55:00
11:15 AM,71.6,51.8,50,30.24,10.0,West,5.8,-,N/A,,Clear,270,2012-11-23 17:15:00
11:35 AM,73.4,50.0,44,30.23,10.0,WNW,8.1,-,N/A,,Clear,290,2012-11-23 17:35:00
11:55 AM,73.4,46.4,38,30.21,10.0,WNW,8.1,-,N/A,,Clear,290,2012-11-23 17:55:00
12:15 PM,73.4,48.2,41,30.20,10.0,NNW,5.8,-,N/A,,Clear,330,2012-11-23 18:15:00
12:35 PM,73.4,46.4,38,30.18,10.0,SW,5.8,-,N/A,,Clear,230,2012-11-23 18:35:00
12:55 PM,73.4,46.4,38,30.18,7.0,West,4.6,-,N/A,,Clear,260,2012-11-23 18:55:00
1:15 PM,73.4,46.4,38,30.17,10.0,WSW,5.8,-,N/A,,Clear,250,2012-11-23 19:15:00
1:35 PM,73.4,46.4,38,30.16,10.0,NW,3.5,-,N/A,,Clear,320,2012-11-23 19:35:00
1:55 PM,73.4,48.2,41,30.16,10.0,SW,4.6,-,N/A,,Clear,230,2012-11-23 19:55:00
2:15 PM,73.4,50.0,44,30.15,10.0,SW,5.8,-,N/A,,Clear,220,2012-11-23 20:15:00
2:35 PM,71.6,50.0,46,30.14,10.0,SW,4.6,-,N/A,,Clear,230,2012-11-23 20:35:00
2:55 PM,71.6,51.8,50,30.14,10.0,SW,5.8,-,N/A,,Scattered Clouds,230,2012-11-23 20:55:00
3:15 PM,71.6,51.8,50,30.14,10.0,WSW,4.6,-,N/A,,Scattered Clouds,240,2012-11-23 21:15:00
3:35 PM,69.8,53.6,56,30.14,10.0,SW,5.8,-,N/A,,Clear,230,2012-11-23 21:35:00
3:55 PM,68.0,53.6,60,30.14,10.0,Calm,Calm,-,N/A,,Clear,0,2012-11-23 21:55:00
4:15 PM,68.0,55.4,64,30.14,10.0,SSW,3.5,-,N/A,,Clear,210,2012-11-23 22:15:00
4:35 PM,66.2,55.4,68,30.14,10.0,SW,3.5,-,N/A,,Clear,220,2012-11-23 22:35:00
4:55 PM,64.4,57.2,77,30.14,10.0,SW,3.5,-,N/A,,Clear,220,2012-11-23 22:55:00
5:15 PM,62.6,55.4,77,30.14,10.0,Calm,Calm,-,N/A,,Scattered Clouds,0,2012-11-23 23:15:00
5:35 PM,60.8,55.4,82,30.15,10.0,Calm,Calm,-,N/A,,Clear,0,2012-11-23 23:35:00
5:55 PM,59.0,55.4,88,30.16,10.0,Calm,Calm,-,N/A,,Clear,0,2012-11-23 23:55:00
6:35 PM,57.2,53.6,88,30.16,10.0,Calm,Calm,-,N/A,,Clear,0,2012-11-24 00:35:00
6:55 PM,55.4,53.6,94,30.16,3.0,Calm,Calm,-,N/A,,Clear,0,2012-11-24 00:55:00
7:15 PM,55.4,53.6,94,30.16,2.5,Calm,Calm,-,N/A,,Scattered Clouds,0,2012-11-24 01:15:00
7:35 PM,53.6,53.6,100,30.16,10.0,WSW,3.5,-,N/A,,Scattered Clouds,250,2012-11-24 01:35:00
7:55 PM,60.8,59.0,94,30.17,10.0,WNW,3.5,-,N/A,,Clear,290,2012-11-24 01:55:00
8:15 PM,62.6,59.0,88,30.17,10.0,WNW,4.6,-,N/A,,Scattered Clouds,300,2012-11-24 02:15:00
8:35 PM,62.6,59.0,88,30.17,10.0,NW,6.9,-,N/A,,Clear,310,2012-11-24 02:35:00
8:55 PM,64.4,57.2,77,30.18,10.0,NW,8.1,-,N/A,,Clear,320,2012-11-24 02:55:00
9:15 PM,64.4,57.2,77,30.18,10.0,NNW,8.1,16.1,N/A,,Clear,330,2012-11-24 03:15:00
9:35 PM,62.6,57.2,82,30.18,10.0,NNW,10.4,16.1,N/A,,Clear,330,2012-11-24 03:35:00
9:55 PM,64.4,55.4,73,30.18,10.0,NNW,8.1,18.4,N/A,,Mostly Cloudy,340,2012-11-24 03:55:00
10:15 PM,62.6,55.4,77,30.18,10.0,NNW,6.9,-,N/A,,Scattered Clouds,340,2012-11-24 04:15:00
10:55 PM,62.6,53.6,72,30.19,10.0,NNW,13.8,21.9,N/A,,Scattered Clouds,330,2012-11-24 04:55:00
11:15 PM,62.6,53.6,72,30.18,10.0,NNW,11.5,19.6,N/A,,Clear,330,2012-11-24 05:15:00
11:35 PM,60.8,53.6,77,30.18,10.0,NNW,12.7,21.9,N/A,,Clear,330,2012-11-24 05:35:00
11:55 PM,60.8,53.6,77,30.18,10.0,NNW,9.2,19.6,N/A,,Scattered Clouds,330,2012-11-24 05:55:00